カタログに戻る

FENGYUN 1C DEB

運用中PO
NORAD 29733·DEBRIS·🇨🇳 China

打ち上げ May 10, 1999 から Taiyuan Satellite Launch Center

Loading…

次のパス (今後24時間)

TLE

最新Source: Space-Track

元期: Sep 14, 2026, 22:07 UTC

1 29733U 99025X   26257.92192565  .00001005  00000-0  17410-2 0  9991
2 29733  99.2060 276.8764 0563790 284.0993 194.6127 12.96913561926995

AllMySatでFENGYUN 1C DEBをリアルタイム追跡

Download on the App Store